Regional Weather Roundup
Issued by NWS Charleston, WV

Home | Current Version | Previous Version | Text Only | Print | Product List | Glossary Off
Versions: 1 2 3 4 5 6 7 8 9 10 11 12 13 14 15 16 17 18 19 20 21 22 23 24 25 26 27 28 29 30 31 32 33 34 35 36 37 38 39 40 41 42 43 44 45 46 47 48 49 50

773
ASUS41 KRLX 110910
RWRRLX
CRWRWRRLX ALL
West Virginia Regional Weather Roundup
National Weather Service Charleston WV
Issued by National Weather Service Pittsburgh PA
400 AM EST SUN DEC 11 2016

Note: "fair" indicates few or no clouds below 12,000 feet with no
significant weather and/or obstructions to visibility.

WVZ003-111000-
Northern Panhandle of West Virginia

CITY           SKY/WX    TMP DP  RH WIND       PRES   REMARKS
WHEELING       LGT SNOW  22  18  85 SE6       30.41F FOG     WCI  14
$$

WVZ009-111000-
Northwest West Virginia

CITY           SKY/WX    TMP DP  RH WIND       PRES   REMARKS
PARKERSBURG    CLOUDY    27  15  61 E6        30.44F WCI  20
$$

WVZ006-111000-
Western West Virginia

CITY           SKY/WX    TMP DP  RH WIND       PRES   REMARKS
HUNTINGTON     CLOUDY    28  17  63 E5        30.37F WCI  23
$$

WVZ015-111000-
West Central West Virginia

CITY           SKY/WX    TMP DP  RH WIND       PRES   REMARKS
CHARLESTON     CLOUDY    27  17  66 E6        30.38F WCI  20
$$

WVZ031-111000-
North Central West Virginia

CITY           SKY/WX    TMP DP  RH WIND       PRES   REMARKS
CLARKSBURG     CLOUDY    24  16  71 CALM      30.43R
MORGANTOWN     LGT SNOW  23  16  74 CALM      30.45R
$$

WVZ035-042-111000-
South Central West Virginia

CITY           SKY/WX    TMP DP  RH WIND       PRES   REMARKS
BECKLEY        CLOUDY    26  13  57 CALM      30.33R
BLUEFIELD      CLOUDY    29   8  41 CALM      30.30F
$$

WVZ045-111000-
Greenbrier Valley of West Virginia

CITY           SKY/WX    TMP DP  RH WIND       PRES   REMARKS
LEWISBURG      CLOUDY    22  15  72 N8        30.35R WCI  13
$$

WVZ047-111000-
Northern Mountains of West Virginia

CITY           SKY/WX    TMP DP  RH WIND       PRES   REMARKS
ELKINS         CLOUDY    20  13  74 CALM      30.39R
$$

WVZ052-111000-
Eastern Panhandle of West Virginia

CITY           SKY/WX    TMP DP  RH WIND       PRES   REMARKS
MARTINSBURG    CLOUDY    25  16  68 SW3       30.49S
PETERSBURG     CLOUDY    24  18  76 CALM      30.46S
$$




USA.gov is the U.S. government's official web portal to all federal, state and local government web resources and services.